ATLAS 5 CENTAUR DEB, 44683

Orbit data source: Space-Track

ATLAS 5 CENTAUR DEB, 44683 is space debris in HEO originally from a launch on Wed, 17 Oct 2018 UTC launched from the Air Force Eastern Test Range (AFETR). Debris objects in space refer to the collection of defunct objects orbiting the Earth. Examples of debris include non-operational satellites, rocket bodies, and fragments generated from explosions, collisions, or faulty payload assembly.

Loading next visibility...
Identifier
44683, 2018-079AV
Orbit
HEO
Country
Flag of USUS
Related business
Flag of USUnited Launch Alliance/Lockheed Martin (US)
Manufacturer
ULA Decatur
Mission
Spacecraft
Bus & Motor
Unknown
Mass
Unknown
Launch date (UTC)
2018-10-17 (7 years ago)
Launch vehicle
Unknown
Launch site
Air Force Eastern Test Range (AFETR)
Object type
Payload
Rocket body
Debris
Shape & HBR
Unknown shape, 1.1 m
Radar Cross Section
RCS unknown

Expand to show TLE details & history
Last TLE update: 3 days ago

TLE from 3 days ago
0 ATLAS 5 CENTAUR DEB
1 44683U 18079AV  25284.25953552 -.00000142  00000-0  00000-0 0  9995
2 44683  13.0624  52.7692 4695313 282.2877  30.6768  1.83236750 46769
Epoch: 2025-10-11T06:13Z
TLE epoch observation values (Epoch: 2025-10-11T06:13:43.868Z)
Latitude
-0.00007°
Longitude
-60.7888°
Altitude
13,593.853 km
Speed
5.078 km/s
True Right ascension
03h 30m 57s
True Declination
0° 00' 00"
Sunlit
Object was in daylight at epoch
Visualization orbit readout
Latitude
Unknown
Longitude
Unknown
Altitude
Unknown
Speed
Unknown
Apparent Right ascension
Unknown
Apparent Declination
Unknown
Sunlit
N/A
Visualization observer readout
Local Sidereal Time
05:35:50
Azimuth
Unknown
Elevation
Unknown
Doppler factor
Unknown
Orbital elements
Apogee altitude
35,079.525 km
Perigee altitude
8,587.173 km
Semi-major axis
28,211.486 km
Eccentricity
0.46953
Inclination
13.0624°
RAAN
52.7692°
Arg. of periapsis
282.2877°
True anomaly
77.92141°
Mean anomaly
30.6768°
Eccentric anomaly
51.82543°
Mean motion
0.45804 °/min
Orbital period
785.96 mins
BSTAR
0
Loading maneuver chart data...
Computing Atmospheric mass density...

Documentation

Showing up to 5 results
|